Theta_e
282 282 281 282 282 282 281 281 281 280 280 280 280 280 280 281 281 281 281 281 281 281 281 281 281 281 282 282 282 281 281 281 281 281 281 281 281 281 280 280 280 280
281 281 281 281 280 280 280 280 280 279 279 279 279 279 280 280 280 280 280 280 280 280 280 280 281 281 280 280 281 280 280 281 280 282 281 281 280 280 280 280 280 280
280 280 279 279 279 279 279 279 278 278 278 279 279 279 279 279 279 279 279 279 279 279 280 280 280 280 280 280 280 280 279 279 279 280 280 280 280 280 280 280 279 280
279 279 279 279 278 278 278 277 277 278 278 278 278 279 278 278 278 278 278 278 278 278 278 278 278 279 279 279 279 279 279 279 279 279 279 279 279 279 279 279 279 279
278 278 278 278 277 277 277 276 276 277 277 277 277 277 277 277 277 277 277 277 277 277 277 277 278 278 278 278 278 278 278 278 278 279 278 278 278 278 278 278 278 277
278 278 277 277 277 276 276 276 276 276 276 276 276 277 277 276 276 276 276 276 276 276 276 276 277 277 277 277 277 277 277 277 277 278 277 277 277 278 278 278 277 277
277 277 276 276 276 276 276 276 276 276 276 276 276 275 276 275 275 275 275 275 275 275 275 275 276 276 276 276 275 275 276 276 276 276 276 276 276 276 277 277 276 276
276 276 276 276 275 275 275 275 275 275 275 275 274 275 275 274 274 274 275 275 275 275 275 275 275 275 275 275 274 274 274 275 275 275 274 274 274 274 274 275 276 275
276 276 275 275 275 275 275 275 275 275 275 274 274 274 274 274 274 274 274 274 274 274 274 273 273 273 273 273 272 272 272 272 273 273 272 272 272 272 272 273 273 273
275 275 275 274 274 275 274 274 274 274 274 273 273 273 273 273 273 273 273 272 272 272 272 272 271 271 271 271 271 271 270 270 271 271 271 271 271 271 271 271 271 271
275 275 274 274 274 274 274 274 273 273 273 272 272 272 272 272 272 272 271 271 270 270 270 270 270 270 269 269 269 270 269 269 269 269 270 270 270 270 271 270 270 270
274 274 274 274 274 273 273 273 273 272 272 272 271 271 270 270 270 270 270 269 269 269 269 269 269 269 269 268 269 269 269 269 269 269 269 269 269 269 269 269 269 269
274 274 274 273 273 273 273 272 272 271 270 270 270 269 268 268 269 268 268 268 268 268 268 268 268 268 268 268 268 268 269 268 268 269 269 268 268 269 269 269 269 269
274 274 273 273 273 272 271 271 270 269 269 269 268 267 267 267 267 267 267 267 267 268 268 268 268 268 268 268 268 268 268 268 268 268 268 268 268 269 269 269 269 270
273 273 272 272 271 271 270 269 268 268 267 267 266 266 266 266 266 266 266 266 267 267 268 268 268 268 268 268 268 268 269 269 269 269 270 269 270 270 270 271 271 271
272 272 271 271 270 269 269 268 267 266 266 265 265 265 266 266 266 266 266 266 267 267 268 268 268 268 269 271 272 270 270 270 270 270 270 270 269 269 270 270 271 271
271 271 270 269 269 268 267 266 265 265 264 264 264 264 264 265 265 266 266 267 267 267 267 267 268 268 270 272 273 274 272 270 269 270 270 270 270 270 269 270 271 271
271 270 269 268 267 266 265 265 264 263 263 264 264 264 264 265 265 266 266 267 267 267 267 267 267 269 271 272 273 274 274 271 271 270 270 270 270 270 270 271 271 271
269 268 267 266 266 265 264 263 263 263 263 263 263 264 264 264 265 265 266 266 266 266 266 266 267 269 271 272 273 274 275 274 271 271 271 271 271 271 271 271 271 271
267 267 266 266 265 264 263 263 262 262 263 264 264 264 264 264 265 265 265 265 266 265 266 266 266 268 271 273 273 274 275 274 272 271 271 271 271 271 271 271 271 271
266 266 265 265 264 263 262 262 262 263 263 264 264 264 264 264 264 264 264 264 264 265 265 265 266 270 272 273 273 274 275 275 271 271 270 270 271 271 271 271 272 272
265 265 264 263 263 262 262 262 263 263 262 263 263 264 264 265 264 264 264 264 264 264 264 264 266 270 271 272 273 274 275 271 271 271 271 271 271 271 271 271 271 271
265 264 263 262 262 261 261 261 262 262 263 264 263 263 263 263 263 264 264 264 264 264 264 264 265 268 271 272 273 274 273 271 271 271 270 270 270 271 271 271 272 272
264 263 262 262 261 261 261 262 262 263 263 263 262 262 263 263 263 263 264 264 264 264 264 264 265 268 271 273 273 274 274 271 271 270 270 270 270 271 271 271 272 274
263 262 262 261 260 261 261 260 261 262 262 263 263 263 263 263 263 263 263 264 264 264 266 266 266 268 271 272 273 275 273 271 271 270 270 270 270 270 271 272 272 273
262 261 261 260 260 260 260 261 262 262 262 262 262 263 263 263 263 263 262 263 264 265 266 267 267 268 269 273 274 275 275 272 272 271 270 270 271 271 270 271 272 272
Wind_Speed
8 6 6 5 5 5 5 5 5 6 6 6 7 7 8 8 8 8 9 9 9 9 9 9 10 10 10 10 11 11 11 12 11 11 13 14 14 15 16 18 18 17
8 7 5 5 5 5 5 5 6 6 7 7 7 8 8 8 9 8 9 9 9 10 10 10 10 11 11 11 11 11 11 11 13 10 12 16 16 17 18 20 20 19
8 8 8 7 6 6 6 5 6 7 7 8 8 8 8 7 8 8 9 9 9 10 10 10 11 11 12 12 12 12 12 13 13 13 15 17 17 17 17 18 17 20
9 8 7 7 6 6 5 6 7 7 7 7 8 7 7 7 8 9 9 9 9 9 9 10 11 11 11 12 12 12 13 14 14 14 16 16 16 16 18 17 18 19
9 8 6 6 5 5 6 7 8 7 8 8 7 8 7 7 8 8 8 8 8 9 9 10 10 11 11 11 11 12 12 13 15 14 15 16 16 16 16 17 19 20
7 6 6 6 6 6 6 7 7 7 8 8 8 7 7 7 7 8 8 8 8 8 9 10 10 10 11 12 12 13 14 13 13 15 16 17 17 17 16 17 19 20
8 7 7 6 6 7 7 7 6 7 7 6 6 7 6 7 7 8 8 8 9 9 9 10 11 11 10 11 12 13 14 15 15 15 17 17 17 19 18 19 20 21
8 6 6 6 6 6 7 6 6 6 6 6 7 7 6 7 8 7 7 8 9 10 10 11 11 12 12 11 12 13 14 12 13 15 16 18 18 19 18 16 17 20
7 7 6 7 7 6 6 6 5 6 5 6 6 6 6 6 7 7 8 9 9 10 10 11 11 11 11 11 12 13 14 14 13 15 17 18 19 19 19 17 19 20
7 7 7 6 6 5 6 5 5 5 5 5 6 5 6 7 7 8 8 9 9 10 10 10 11 11 11 11 12 13 13 14 14 15 16 17 19 19 19 18 19 20
8 7 7 6 6 5 5 5 5 4 4 5 5 6 6 6 7 7 7 8 8 9 10 10 11 11 12 12 12 12 13 14 15 15 16 17 18 18 18 19 19 19
8 7 7 7 6 5 5 5 4 4 4 4 4 6 6 7 7 6 6 8 8 9 10 11 11 11 12 12 12 12 13 13 14 15 16 18 18 19 18 18 18 19
8 8 6 6 6 5 4 3 4 3 4 5 5 6 6 7 7 7 7 8 9 9 10 10 11 11 11 12 12 13 14 14 14 16 18 18 18 19 19 20 20 19
8 7 6 6 4 4 3 3 3 3 4 4 5 6 6 7 7 7 8 8 9 9 10 10 10 11 11 12 11 12 13 15 16 17 18 19 20 20 21 20 21 21
7 6 6 5 5 4 4 4 4 4 4 4 5 6 5 6 7 7 8 9 9 9 10 9 9 9 8 8 11 14 15 16 17 17 18 19 19 19 19 19 20 20
7 6 6 5 5 4 4 4 3 3 4 5 5 6 6 6 7 7 8 9 9 9 9 8 9 8 11 18 19 16 17 17 16 18 18 19 20 21 21 20 20 20
7 7 6 6 5 4 4 3 4 4 4 5 5 5 6 6 6 7 8 7 8 9 9 9 9 9 17 20 22 24 19 18 18 18 18 19 19 20 21 21 20 20
7 7 6 5 5 5 4 4 4 4 5 5 5 5 5 5 6 7 7 7 7 8 10 10 11 14 20 21 23 24 23 18 18 17 17 18 19 19 20 19 20 19
7 7 6 5 5 5 4 4 4 5 5 5 5 5 5 5 6 6 7 7 8 10 11 11 11 16 21 23 24 25 26 23 16 17 17 18 19 20 20 20 18 19
7 6 6 6 5 4 4 4 4 5 4 4 4 4 4 5 5 6 6 7 8 10 11 11 12 16 22 24 25 26 26 23 17 18 17 18 19 18 18 19 20 19
7 6 6 6 5 5 5 4 5 4 4 4 4 4 4 4 5 5 7 8 9 9 10 11 11 19 24 26 26 26 26 25 17 17 17 17 17 19 20 19 20 19
7 7 6 6 5 5 5 4 5 4 4 3 3 3 3 4 5 6 7 9 9 10 10 12 12 20 24 25 26 26 29 19 16 16 16 16 18 20 20 19 20 20
7 7 6 6 6 5 5 5 4 4 4 3 3 3 3 4 5 6 7 9 11 11 11 12 12 18 23 25 26 28 23 15 15 15 16 18 18 18 19 19 19 20
7 7 6 6 6 5 4 4 3 3 3 2 2 2 4 5 5 6 7 7 9 11 10 13 15 19 23 25 26 26 24 17 16 15 18 17 15 19 18 19 21 29
6 6 6 6 5 5 4 4 3 4 3 2 1 2 4 4 5 6 7 8 9 11 16 17 15 16 23 24 25 25 22 16 16 15 14 16 18 19 19 17 21 24
6 6 6 5 5 4 4 4 3 3 2 1 2 2 3 4 5 6 9 9 10 11 12 13 15 16 18 25 25 27 27 18 16 15 16 17 16 16 16 16 16 17
Wind_Direction
195 197 201 206 216 226 230 236 244 251 256 258 260 266 270 277 283 282 281 281 278 280 280 279 279 277 276 274 271 271 269 269 268 265 267 269 268 266 267 264 259 260
191 193 199 206 218 218 227 231 241 249 255 255 258 264 268 273 276 277 280 281 281 279 282 280 280 278 277 275 274 273 273 271 270 268 269 268 268 267 264 261 260 260
185 191 199 206 211 219 225 235 242 247 250 254 261 263 266 269 274 275 277 279 283 284 282 284 281 278 277 277 278 276 274 274 272 273 273 270 271 267 264 262 262 260
187 192 196 205 215 223 229 234 238 241 247 252 253 261 268 271 274 276 280 281 282 285 286 285 282 280 279 278 278 275 274 275 274 274 272 267 266 264 264 262 262 261
184 186 193 200 211 220 228 235 239 244 250 257 266 265 265 270 277 283 286 288 287 286 288 287 284 281 282 281 277 276 274 277 275 269 267 264 264 263 263 263 262 261
178 182 187 199 208 216 228 235 243 249 256 261 263 270 272 278 281 284 288 290 288 287 286 287 284 282 283 283 281 280 281 275 273 270 268 267 268 266 264 262 263 263
177 177 189 198 208 221 232 241 247 250 256 264 276 272 279 283 283 284 286 284 285 284 285 285 284 283 282 282 280 280 278 277 277 273 270 270 271 271 266 265 266 263
177 178 187 198 208 219 232 238 247 252 258 270 269 276 281 282 281 282 279 283 286 285 284 284 284 285 285 282 280 281 282 283 282 278 274 273 273 270 270 268 268 265
175 182 187 199 210 224 229 238 248 256 261 267 275 282 283 278 282 283 283 287 288 287 288 287 286 285 285 283 283 284 283 281 279 280 279 278 276 274 274 273 269 267
178 182 189 199 211 221 228 240 250 260 268 270 278 281 280 284 284 286 290 289 290 288 286 287 286 285 285 284 284 284 283 283 282 281 280 277 278 278 277 275 272 272
180 182 190 200 209 219 231 245 254 263 266 274 278 280 285 290 288 289 288 288 287 288 288 286 285 286 285 284 284 283 282 284 284 283 280 278 277 276 277 275 274 273
178 183 191 198 204 219 231 240 251 261 268 278 280 282 287 282 285 287 285 287 284 284 284 283 282 284 285 286 286 284 282 282 283 282 282 281 276 274 273 271 270 270
178 183 184 189 197 209 217 232 245 259 270 274 280 280 279 282 281 284 283 282 281 281 280 282 284 284 285 284 285 287 287 284 284 287 286 281 273 271 270 269 265 262
177 177 178 185 188 196 214 234 247 254 261 268 271 272 271 276 282 283 285 280 281 280 281 283 286 287 287 287 286 288 290 291 288 284 279 275 273 271 270 267 265 263
166 170 174 175 185 193 210 217 230 251 255 263 264 265 271 273 276 280 280 279 279 280 285 286 286 284 284 285 295 295 290 287 287 286 286 285 283 281 279 276 274 269
162 162 167 170 179 193 200 208 224 242 251 256 261 263 268 275 276 277 275 279 284 287 289 286 283 283 281 290 291 291 293 293 291 289 287 285 285 284 281 278 276 276
162 165 167 176 181 185 193 204 227 236 250 256 258 264 268 273 271 272 279 282 288 291 292 289 285 284 287 295 296 296 296 294 292 288 285 283 283 283 284 283 281 278
162 162 168 177 176 190 192 202 224 238 246 252 259 264 266 268 273 274 283 291 290 293 292 293 291 287 295 298 299 299 297 295 293 291 289 285 284 282 282 282 282 281
160 164 169 175 185 180 189 206 220 235 242 246 251 259 265 267 275 286 288 294 295 299 297 294 291 291 297 302 302 302 301 300 294 289 287 286 287 287 286 285 285 283
162 164 173 176 175 178 193 209 217 231 238 249 249 252 256 271 277 283 288 295 299 297 296 294 293 295 303 305 307 306 305 302 295 295 293 291 289 287 286 284 282 282
164 168 172 174 175 182 197 209 220 230 239 243 240 247 257 272 284 289 292 291 292 295 295 295 291 300 307 308 309 308 306 306 302 298 292 288 286 286 286 283 282 283
165 168 171 173 174 185 194 212 215 224 234 245 249 256 267 275 282 289 291 297 297 295 295 296 294 302 307 307 307 307 308 306 298 291 289 291 291 291 287 285 282 280
167 166 167 169 179 183 194 209 213 226 237 233 251 273 281 288 288 293 304 306 306 307 297 292 293 298 303 306 308 310 309 301 298 297 295 293 290 290 290 285 282 279
165 163 164 173 176 183 193 207 213 234 224 234 246 293 295 292 295 294 297 302 301 292 285 293 296 297 303 309 311 308 308 307 304 300 296 288 286 290 290 288 282 280
157 162 168 171 174 182 193 211 215 218 227 231 271 280 285 292 302 299 303 303 289 281 285 293 291 296 303 307 309 312 313 309 303 295 286 289 286 283 280 280 284 282
156 163 168 168 169 182 200 212 213 222 216 272 305 291 301 309 311 312 308 298 297 296 299 299 300 299 301 306 310 312 312 310 306 301 297 294 293 288 284 280 280 284